Wind_Speed
10 7 7 8 8 7 7 9 11 13 12 13 14 15 17 19 19 18 19 19 17 15 15 17 16 15 14 14 14 14 15 17 18 20 20 20 21 22 23 23 22 21 20 20 20 20 19 20 21 21 19 17 16 16 17 17 17 17 16 14 15 16 15
12 9 9 11 11 7 6 7 8 9 9 10 12 13 16 18 18 16 16 17 17 15 16 17 18 16 13 13 15 16 15 16 19 20 21 21 22 22 22 23 23 22 21 19 18 17 17 18 20 21 20 17 13 13 16 18 18 17 16 16 17 17 17
14 11 9 11 11 9 8 7 6 7 7 9 10 12 14 16 15 14 13 15 16 16 16 17 19 18 16 14 14 16 16 17 18 20 21 22 22 23 22 22 23 22 21 20 18 17 17 16 17 19 19 15 11 11 13 15 16 16 16 17 18 18 18
16 13 11 9 9 9 7 6 6 6 6 8 10 11 12 13 13 13 12 13 15 17 18 19 20 20 19 17 15 16 17 17 18 19 20 20 21 22 23 23 24 23 22 21 19 18 17 17 17 17 17 15 13 12 12 12 13 14 15 16 17 17 17
17 15 13 11 10 9 7 5 4 3 3 5 8 9 10 11 13 13 12 11 13 16 18 20 20 20 20 19 18 17 17 18 17 18 19 20 19 20 23 24 24 24 24 22 20 19 18 18 18 18 17 16 15 15 15 15 14 14 13 14 14 14 15
19 16 14 13 11 9 9 8 5 2 1 2 3 4 5 7 10 12 12 13 14 15 16 18 20 21 21 21 21 20 18 18 18 18 19 20 20 21 23 24 23 24 24 23 22 20 19 18 18 19 19 18 18 17 16 17 17 15 14 13 13 12 13
19 17 15 14 13 11 10 10 8 5 3 3 4 3 2 4 5 7 8 11 13 14 14 16 19 21 23 23 24 23 21 19 18 18 19 21 21 21 22 23 23 24 24 24 23 22 20 19 19 19 19 19 20 19 19 18 18 17 16 16 15 13 12
18 17 17 16 16 13 12 11 10 8 7 7 6 5 4 3 3 4 5 7 8 10 12 15 17 20 22 23 24 24 23 20 17 16 16 18 19 21 21 21 20 20 21 23 24 22 21 21 20 19 19 19 20 21 22 20 18 19 20 19 17 15 13
17 17 19 18 16 13 11 10 10 9 9 9 8 7 6 5 5 5 6 7 7 8 9 11 14 16 18 20 21 22 23 24 20 17 17 16 16 17 19 20 18 16 17 19 21 22 22 22 22 21 21 20 19 21 22 20 18 19 22 23 21 16 14
20 20 20 18 14 12 10 9 9 10 10 10 10 9 8 8 7 7 7 7 7 7 8 9 10 13 15 17 18 18 21 24 21 19 19 18 17 17 18 19 19 18 17 17 18 21 22 22 22 22 23 23 21 21 21 20 19 18 20 23 23 18 15
22 21 18 15 12 9 8 9 9 10 9 9 10 10 10 9 9 8 8 8 7 7 8 8 8 12 16 17 16 15 17 19 18 17 18 18 19 20 20 21 21 20 19 18 18 20 21 22 22 22 24 25 24 22 21 20 19 18 17 18 19 18 17
21 18 14 12 10 9 9 10 9 9 9 8 8 8 9 10 11 10 9 9 8 7 8 7 7 9 12 14 15 16 17 16 15 16 18 19 20 20 21 23 23 22 21 21 20 21 21 22 23 23 22 23 24 24 23 21 20 20 18 16 16 17 17
18 15 12 11 11 11 12 12 9 9 8 7 7 6 7 9 11 11 9 9 9 8 8 7 7 8 9 10 13 17 18 17 14 13 15 19 21 20 20 22 24 24 24 24 23 23 23 22 22 24 24 23 23 24 23 23 22 21 20 18 18 17 17
17 15 14 14 13 14 14 12 9 8 7 6 6 6 7 7 8 9 9 10 10 10 10 8 8 8 9 9 11 14 16 17 18 16 15 17 21 23 23 23 25 24 23 25 25 24 25 25 22 22 24 25 25 23 22 22 22 23 22 21 21 20 20
19 17 18 17 16 16 14 11 9 8 7 6 6 6 6 6 6 7 8 9 10 10 10 10 9 9 9 10 11 12 14 15 18 19 18 18 21 24 26 27 27 25 22 24 26 24 24 26 26 24 24 25 25 25 23 22 22 23 23 23 24 23 23
20 20 21 19 18 16 13 11 10 8 7 7 7 7 7 6 6 6 7 9 10 11 11 10 11 11 11 11 11 12 12 14 16 18 19 20 21 23 25 25 26 28 28 26 28 28 26 26 28 28 26 26 26 26 26 24 23 23 23 23 23 23 24
22 22 22 21 18 16 12 11 10 8 8 8 8 8 7 7 6 6 6 7 9 10 11 12 12 12 12 12 12 13 13 13 14 16 19 20 21 23 24 23 25 30 33 30 29 29 28 27 28 29 29 28 28 28 28 27 24 23 23 23 23 23 24
23 24 24 21 18 15 13 11 10 9 9 9 9 8 8 7 6 6 6 7 8 9 11 12 12 12 12 13 13 14 14 14 14 15 17 18 20 21 22 23 26 30 32 32 31 29 27 26 27 29 29 30 29 28 29 28 26 24 24 23 23 24 24
24 25 24 20 16 14 13 11 10 9 9 9 8 7 7 7 6 7 7 8 9 10 10 12 11 11 12 14 15 15 15 16 16 15 16 17 18 20 20 22 27 29 29 30 32 32 30 27 26 28 29 30 30 29 29 29 27 25 25 25 24 23 25
24 23 20 17 15 14 12 10 8 8 8 8 8 7 6 7 7 8 9 9 10 10 10 12 13 13 14 15 16 16 16 17 17 17 17 17 17 19 20 22 25 27 28 28 30 33 34 31 27 26 28 30 31 31 31 30 28 26 26 26 25 23 25
23 21 19 17 15 14 11 8 7 7 7 7 7 6 6 7 9 10 10 9 9 10 11 12 12 14 16 17 17 18 18 18 18 19 19 19 19 19 20 21 22 24 25 28 29 31 34 34 30 27 27 29 31 32 32 31 30 29 27 26 25 24 26
22 20 18 17 15 12 9 6 6 6 6 6 6 6 7 8 9 10 9 8 9 11 12 13 13 13 14 15 16 17 17 18 19 20 20 20 20 20 20 20 22 22 23 25 28 30 32 35 34 31 28 27 28 31 32 31 30 30 29 27 25 25 27
20 18 16 14 12 9 6 5 5 6 6 5 4 5 6 8 9 9 9 9 10 12 14 14 13 11 11 12 13 14 14 16 17 19 20 20 20 20 20 19 20 21 21 22 24 27 30 33 34 34 31 27 26 28 30 31 31 31 30 29 27 27 28
18 16 14 13 10 8 5 4 5 6 5 4 4 5 6 7 8 10 10 10 11 13 12 9 7 6 6 7 8 9 11 12 14 15 16 18 19 21 20 20 20 20 20 21 21 22 25 29 31 32 31 31 31 30 29 29 30 31 31 30 29 29 30
17 14 12 10 8 7 5 5 6 5 4 3 4 6 7 8 9 10 11 11 10 8 5 2 2 3 5 6 7 8 8 8 9 11 11 12 14 16 19 19 19 20 19 19 20 20 21 23 25 28 30 32 33 33 32 31 30 30 32 32 31 31 31
15 14 12 10 8 6 6 6 6 5 4 3 5 7 7 8 8 9 8 6 4 1 1 2 3 4 5 7 7 8 8 8 7 9 9 8 8 10 13 15 17 18 17 17 17 17 18 18 20 23 27 30 31 33 35 35 33 31 31 31 31 32 32
14 13 12 11 9 8 7 7 7 6 5 4 6 7 6 6 5 4 3 2 1 1 1 2 2 3 5 6 6 7 7 7 7 8 8 7 7 7 8 10 12 14 14 15 15 16 17 17 18 20 23 26 28 30 33 36 36 35 33 31 31 31 31
16 14 12 12 11 10 9 9 9 7 4 4 5 5 5 3 2 1 1 1 1 2 2 1 2 3 4 5 5 5 5 5 6 6 6 6 6 6 8 9 10 11 12 12 13 14 15 15 16 18 20 23 26 28 30 32 34 35 34 32 31 30 29
18 16 14 13 13 11 9 9 9 6 3 3 4 5 4 2 1 1 1 2 3 4 3 1 3 3 4 4 5 4 3 3 3 3 3 3 3 4 5 7 7 8 9 10 12 12 12 12 13 15 17 19 21 24 27 29 30 32 33 32 31 30 30
17 16 14 12 11 9 8 10 9 5 2 2 3 4 4 2 2 1 0 1 2 3 2 1 2 3 4 4 4 5 6 6 5 4 3 3 2 0 2 2 2 2 3 3 5 6 7 8 10 12 15 16 17 19 20 21 22 26 30 31 29 29 30
17 16 13 10 9 8 9 9 7 5 2 2 1 1 2 2 3 3 2 1 0 1 2 2 2 3 4 4 6 8 8 8 8 8 8 8 7 7 6 5 6 7 8 7 7 6 7 9 10 11 11 12 11 11 10 10 14 20 25 27 26 25 27
17 15 13 11 11 11 11 9 7 5 3 2 2 1 1 2 4 4 3 2 3 2 2 3 4 4 4 7 11 12 11 11 11 12 12 13 13 14 13 13 13 14 13 12 10 10 10 10 9 9 8 8 8 10 10 10 12 14 16 17 18 18 17
17 14 12 12 12 12 11 9 7 5 3 4 5 5 3 4 5 6 6 7 8 8 7 6 5 5 8 13 15 14 14 14 15 15 15 15 16 17 17 17 16 16 15 13 14 15 16 16 15 15 15 17 17 19 20 20 20 19 18 17 17 18 17
15 13 12 12 12 11 9 7 6 5 5 6 7 7 7 7 8 10 10 10 10 11 10 8 7 9 12 16 16 15 15 15 14 15 16 18 20 20 21 20 18 16 16 16 16 18 19 20 22 23 23 23 24 26 28 28 28 29 28 28 29 30 30
13 11 11 11 11 10 8 7 6 5 6 7 7 9 11 12 12 12 11 9 9 9 10 10 10 12 14 17 17 15 14 14 15 16 19 21 23 24 24 24 22 21 21 20 19 19 19 22 25 27 27 28 28 29 31 34 34 33 33 33 33 33 34
12 10 10 10 10 9 7 5 5 7 9 9 8 9 13 14 12 9 9 10 8 7 8 9 10 12 15 17 17 16 16 17 19 20 21 22 24 26 28 28 26 25 26 26 24 23 23 26 28 28 29 31 31 30 31 34 34 33 31 32 32 31 31
11 9 9 9 8 7 6 6 8 10 11 10 9 10 13 14 10 7 6 8 8 6 6 7 8 11 15 17 18 19 19 20 21 22 23 24 25 27 30 31 30 29 28 28 27 27 28 29 31 30 29 32 34 33 32 32 31 28 27 27 27 27 28
9 9 9 8 7 8 10 12 14 15 15 13 12 11 12 13 10 8 7 7 8 9 8 6 7 12 17 18 18 19 20 21 22 23 24 26 26 27 29 30 31 32 30 29 28 29 29 29 30 30 29 30 30 31 30 28 27 26 26 26 27 27 28
Wind_Direction
163 168 165 177 197 201 196 192 198 209 211 210 213 214 213 212 214 221 224 226 225 219 222 229 230 225 221 219 215 213 214 213 208 208 211 210 205 204 205 207 206 205 207 208 208 209 211 213 218 224 228 229 232 231 228 228 230 229 223 226 238 242 246
160 162 167 175 179 181 193 204 215 220 215 213 213 215 217 214 218 229 231 228 226 222 224 232 235 234 227 219 217 212 209 209 207 207 210 212 210 209 210 210 209 208 209 211 214 213 210 213 219 226 232 233 236 236 229 228 231 232 229 233 241 245 248
150 147 155 172 180 189 206 216 223 221 217 220 218 216 218 218 222 233 236 234 232 227 224 229 237 241 235 225 219 215 210 207 206 206 208 211 213 214 214 213 213 212 211 213 219 218 213 212 217 227 232 231 230 231 228 227 233 238 240 243 246 249 252
145 139 137 147 167 186 203 216 221 215 216 226 226 221 220 222 226 230 236 238 235 232 228 228 234 239 239 234 226 221 216 209 206 207 206 207 211 213 212 212 213 213 211 212 216 218 219 218 218 222 225 227 231 233 229 227 234 245 250 252 253 253 254
146 145 145 142 145 158 168 175 182 179 197 219 223 225 229 233 236 236 239 236 231 233 233 231 233 234 236 237 233 227 222 215 210 208 207 206 206 208 208 210 212 212 210 211 212 214 221 225 224 221 222 230 237 237 235 234 236 246 253 255 255 255 254
147 152 156 153 148 152 154 155 158 155 177 188 189 219 241 243 245 244 241 238 237 237 233 232 234 233 231 231 232 230 225 220 216 212 210 208 207 207 207 210 213 213 212 213 213 215 219 221 223 223 224 230 235 235 236 234 233 240 247 252 255 255 254
153 156 159 158 158 159 154 154 161 167 176 189 197 211 230 243 249 242 235 239 243 244 239 235 235 234 229 228 228 227 224 221 218 216 213 210 209 210 210 212 213 213 215 214 214 217 218 214 216 221 226 231 234 234 236 235 233 236 241 246 250 254 260
159 161 160 162 166 168 165 166 172 172 171 182 192 190 191 220 254 255 252 255 253 251 247 241 240 238 232 228 228 227 225 221 215 215 218 215 212 211 209 211 212 215 218 216 214 217 218 217 217 219 224 231 234 234 238 242 243 242 242 243 246 253 262
163 164 163 164 168 170 175 182 189 192 194 198 199 198 201 216 235 251 263 268 266 263 255 244 240 239 232 227 228 229 227 223 216 214 218 217 217 216 211 208 210 215 222 221 218 217 217 220 221 221 223 228 233 233 235 241 245 245 245 244 245 251 257
160 160 161 163 165 169 177 185 190 199 210 216 220 227 232 233 234 234 239 248 255 260 260 250 238 232 228 226 228 230 229 228 227 227 224 216 215 219 217 212 214 219 223 225 225 221 219 219 221 223 226 228 231 231 229 233 239 243 244 241 241 246 251
157 157 160 164 166 169 178 186 194 205 215 220 225 233 239 246 247 238 235 241 244 247 256 263 251 235 230 228 228 225 226 232 240 242 235 223 216 217 217 214 216 220 222 223 224 224 224 223 222 226 229 229 230 229 227 228 232 235 238 236 236 240 246
163 165 167 172 169 165 177 187 195 204 213 222 230 238 247 258 261 253 245 246 248 249 251 262 270 256 243 236 230 225 223 228 238 241 235 227 220 218 215 211 212 219 225 226 225 226 227 226 225 227 229 228 229 231 233 233 230 230 232 234 237 241 245
171 173 174 176 168 170 182 187 192 201 214 231 242 249 254 259 262 260 255 251 253 254 250 249 259 266 265 254 240 235 232 230 234 238 237 231 225 221 217 213 213 220 227 231 231 231 231 228 225 226 227 226 228 233 238 239 234 231 231 234 238 242 243
171 174 176 175 173 179 184 184 193 208 223 238 243 250 257 259 262 263 260 256 254 255 255 252 246 248 261 263 252 247 245 240 237 237 236 234 228 223 220 218 216 217 224 230 231 232 232 230 227 227 229 230 232 234 237 237 235 234 235 235 236 238 241
170 174 176 176 179 184 185 188 198 208 221 238 247 255 264 268 268 267 264 260 258 258 261 261 252 244 246 252 254 252 249 245 241 237 235 235 232 227 224 223 222 222 223 224 225 227 229 230 230 232 233 235 235 236 235 233 233 234 235 236 235 236 240
174 178 178 178 180 182 185 191 197 207 227 247 258 263 268 272 273 275 272 264 260 260 262 264 261 254 247 246 249 250 247 242 240 239 236 234 233 231 230 229 228 229 228 223 221 223 225 227 230 232 234 235 236 236 234 233 235 236 236 237 237 236 237
178 179 177 176 177 181 187 194 202 220 238 251 259 266 275 278 277 280 278 271 267 263 262 262 262 259 254 248 247 248 250 245 239 239 238 236 235 233 234 235 232 229 229 228 224 223 225 226 227 229 232 234 235 235 233 233 237 239 238 239 239 236 235
180 179 177 177 180 185 194 202 214 231 244 255 262 267 276 279 277 279 277 272 270 266 264 264 263 262 260 253 248 247 249 249 246 243 242 240 238 235 235 238 237 231 231 231 229 226 226 226 227 229 231 233 235 234 234 235 238 239 239 240 238 237 236
175 176 176 179 183 189 198 207 221 237 250 262 268 269 276 282 282 280 278 276 276 276 276 274 271 269 267 262 257 251 248 249 250 251 249 245 242 237 234 236 238 236 235 234 232 229 226 226 227 229 230 233 235 234 234 236 238 238 238 239 237 237 237
171 173 175 180 186 191 199 208 224 242 253 265 274 278 281 281 282 286 288 287 286 289 287 281 276 271 269 268 266 261 256 251 249 250 251 250 247 242 236 235 238 238 236 235 234 231 228 226 226 227 229 231 232 233 234 236 237 236 236 236 236 237 238
172 175 177 181 187 191 198 213 234 246 254 263 270 276 279 278 283 291 292 290 291 294 292 288 283 274 269 268 268 268 266 261 255 251 250 248 247 245 241 238 237 237 237 235 234 233 231 228 228 229 229 229 229 231 233 234 236 234 232 230 231 235 238
176 182 184 187 192 194 201 229 248 248 257 263 265 275 283 284 288 292 288 284 287 291 293 294 292 284 276 271 268 268 267 264 261 256 253 249 246 244 243 241 239 238 238 237 235 235 233 231 231 233 231 229 228 229 230 232 234 232 228 226 226 230 234
179 182 184 186 194 200 210 242 249 246 257 264 274 299 307 300 295 292 285 280 285 289 293 294 290 282 277 273 269 267 262 259 257 256 255 253 248 245 245 243 241 239 240 240 238 237 236 234 235 236 234 232 232 231 229 230 231 231 229 227 226 227 231
175 179 182 182 189 196 206 234 237 240 257 278 305 326 331 317 299 293 289 284 284 286 285 286 285 287 295 295 290 284 274 261 253 251 252 252 249 247 247 245 241 238 239 242 242 242 240 238 240 241 237 234 234 234 232 230 229 230 229 228 226 227 229
171 175 181 181 183 186 193 210 219 229 248 280 309 320 329 321 302 292 289 285 282 281 281 300 336 334 335 336 333 325 314 291 267 256 252 249 246 245 245 245 242 239 238 241 244 245 243 241 241 241 239 236 235 235 235 232 229 229 229 228 226 225 225
171 172 175 169 166 178 190 201 210 219 232 263 305 320 330 325 305 290 289 290 288 305 42 21 352 346 347 346 349 350 344 332 306 283 271 261 252 248 247 245 243 241 239 240 243 245 245 245 244 241 240 240 238 236 236 234 230 229 230 229 226 223 223
170 170 170 163 165 179 189 197 203 210 227 275 315 329 343 344 327 307 297 308 6 43 17 348 343 359 356 349 358 4 356 347 333 315 300 283 264 252 247 244 243 242 241 241 243 245 246 248 250 249 246 245 243 241 240 238 233 231 231 232 231 229 230
167 166 164 163 171 181 187 193 194 202 233 295 326 343 6 20 15 359 285 284 277 236 247 303 348 359 354 351 1 10 4 353 343 332 325 310 284 262 248 241 237 234 233 234 235 239 243 245 248 251 251 249 248 248 248 246 239 233 231 232 232 232 233
164 163 162 164 172 180 190 195 194 203 245 311 344 4 26 56 160 188 268 284 264 236 228 269 329 344 352 351 360 21 33 20 2 351 350 343 315 279 257 250 242 232 230 230 229 233 238 242 247 253 254 253 253 253 255 253 245 236 231 229 227 226 227
162 163 163 166 172 181 200 206 200 201 231 306 349 20 53 107 161 136 66 298 263 237 232 272 316 360 12 3 16 50 60 56 51 48 48 51 44 311 244 245 230 196 188 199 211 222 227 226 236 247 247 244 243 243 247 248 239 230 227 225 222 220 224
165 164 165 170 175 186 203 206 199 193 200 255 300 45 79 118 134 116 95 56 10 272 298 322 2 33 28 32 58 71 74 73 72 72 76 82 84 86 97 111 114 111 109 115 132 152 175 188 202 219 226 225 221 213 213 218 214 211 214 217 217 214 216
163 164 168 172 174 184 194 194 190 194 206 234 227 183 134 144 135 127 117 79 65 60 47 49 59 61 64 73 76 78 79 77 73 71 75 82 85 86 89 96 103 107 106 107 112 120 135 152 165 174 171 159 151 142 134 140 159 173 185 197 202 197 196
162 164 170 174 177 186 194 194 196 206 226 242 223 203 195 175 145 132 123 103 86 79 76 74 77 85 90 88 84 83 86 84 79 77 78 81 85 87 88 92 100 106 103 98 100 104 109 114 118 121 123 123 125 125 122 120 121 123 127 132 137 139 137
169 167 170 174 178 187 196 207 225 238 243 230 209 192 187 174 146 133 128 114 95 82 74 73 82 92 96 97 93 91 91 89 87 88 89 89 89 90 89 90 92 95 93 93 98 102 106 110 112 112 115 118 123 124 122 119 119 120 123 125 124 125 129
173 172 175 177 182 193 206 223 243 238 206 189 176 168 171 164 148 140 142 138 120 94 76 73 81 91 100 104 102 100 98 96 96 97 96 95 95 94 91 89 88 89 90 90 92 95 101 108 111 111 113 114 116 119 119 118 119 121 123 125 125 125 128
173 175 182 185 189 200 213 219 211 191 178 171 160 156 161 159 153 151 159 163 154 120 83 72 79 96 108 111 109 109 108 105 102 100 99 98 98 97 94 90 87 87 89 91 93 96 100 104 105 107 110 110 108 108 109 111 114 118 119 120 122 123 124
180 183 184 185 188 190 182 168 162 161 159 154 149 155 161 160 155 150 157 169 174 153 109 78 81 108 119 118 114 114 112 109 107 104 103 101 100 99 98 96 94 92 92 95 98 100 101 103 104 106 108 108 105 103 104 106 109 113 114 115 118 121 122
186 188 180 176 174 168 157 151 147 144 141 139 139 148 159 161 154 140 136 149 162 157 141 112 107 123 126 122 119 118 115 113 112 111 109 107 104 102 102 102 102 101 101 102 104 105 105 105 105 104 103 103 104 104 105 109 111 111 110 110 111 112 113
Height
1512 1512 1513 1513 1513 1513 1513 1514 1516 1517 1518 1519 1519 1519 1520 1521 1522 1522 1523 1524 1525 1526 1528 1529 1530 1530 1529 1529 1529 1529 1529 1529 1530 1531 1532 1534 1535 1537 1538 1540 1541 1543 1544 1546 1547 1549 1550 1551 1553 1554 1556 1557 1558 1559 1560 1561 1562 1563 1563 1564 1564 1565 1565
1512 1513 1513 1514 1514 1514 1514 1515 1516 1517 1517 1518 1518 1518 1519 1520 1521 1522 1523 1524 1526 1527 1528 1529 1530 1530 1530 1529 1529 1529 1529 1529 1529 1530 1531 1532 1534 1535 1537 1539 1540 1541 1543 1545 1546 1548 1549 1550 1552 1553 1555 1556 1557 1558 1559 1560 1561 1561 1562 1562 1563 1563 1564
1513 1513 1514 1515 1515 1515 1516 1516 1516 1517 1517 1517 1517 1518 1518 1519 1521 1522 1523 1524 1526 1527 1528 1530 1530 1531 1530 1529 1529 1529 1529 1529 1529 1529 1529 1530 1532 1534 1535 1537 1538 1540 1542 1543 1545 1546 1548 1549 1551 1552 1554 1555 1556 1557 1558 1559 1559 1560 1561 1561 1562 1562 1562
1513 1514 1514 1516 1516 1516 1517 1516 1517 1517 1517 1517 1517 1518 1518 1519 1520 1521 1522 1524 1525 1526 1527 1528 1528 1530 1530 1530 1529 1530 1529 1529 1528 1528 1529 1529 1531 1532 1533 1535 1536 1538 1540 1542 1543 1545 1546 1548 1549 1551 1552 1554 1555 1556 1557 1558 1558 1559 1559 1560 1560 1561 1561
1513 1514 1515 1516 1516 1517 1517 1517 1517 1517 1517 1518 1517 1518 1518 1518 1519 1519 1521 1522 1522 1523 1523 1525 1526 1527 1529 1529 1529 1529 1529 1528 1528 1528 1528 1528 1530 1531 1532 1533 1535 1537 1538 1540 1542 1543 1545 1546 1548 1549 1550 1552 1553 1554 1555 1556 1557 1558 1558 1558 1559 1559 1559
1513 1514 1515 1516 1516 1517 1517 1517 1518 1517 1518 1518 1517 1518 1518 1518 1518 1518 1520 1520 1519 1520 1520 1522 1523 1524 1526 1527 1527 1527 1527 1527 1527 1527 1527 1528 1529 1530 1531 1532 1534 1535 1537 1539 1540 1542 1543 1545 1546 1547 1548 1550 1551 1552 1553 1554 1555 1556 1557 1557 1557 1557 1558
1513 1514 1515 1516 1516 1517 1517 1517 1518 1517 1517 1518 1517 1517 1517 1517 1517 1518 1518 1519 1518 1518 1518 1520 1521 1521 1523 1524 1525 1525 1525 1525 1526 1526 1526 1527 1528 1529 1530 1531 1533 1534 1536 1537 1539 1540 1541 1543 1544 1545 1547 1548 1549 1550 1551 1552 1553 1554 1555 1555 1556 1556 1556
1513 1514 1515 1516 1516 1517 1517 1517 1518 1517 1517 1517 1517 1517 1516 1516 1516 1516 1517 1517 1517 1517 1517 1519 1521 1520 1521 1522 1523 1523 1523 1523 1524 1525 1526 1526 1527 1527 1528 1530 1531 1533 1535 1536 1537 1539 1540 1541 1542 1544 1545 1546 1547 1548 1549 1550 1551 1552 1553 1553 1554 1554 1554
1513 1514 1515 1516 1516 1517 1517 1517 1517 1517 1517 1517 1517 1517 1516 1516 1516 1516 1516 1516 1516 1516 1516 1517 1519 1520 1521 1521 1521 1521 1522 1522 1522 1523 1524 1524 1526 1527 1527 1529 1530 1532 1533 1534 1536 1537 1538 1539 1541 1542 1543 1544 1546 1547 1548 1548 1549 1550 1551 1551 1552 1552 1553
1512 1513 1514 1515 1516 1516 1517 1517 1517 1517 1517 1517 1517 1516 1516 1516 1516 1516 1515 1515 1515 1515 1515 1515 1517 1519 1520 1520 1520 1520 1520 1521 1521 1522 1523 1523 1525 1526 1526 1527 1529 1530 1532 1533 1534 1535 1536 1538 1539 1540 1541 1542 1543 1545 1545 1546 1547 1548 1549 1549 1550 1551 1551
1512 1513 1514 1515 1516 1516 1516 1516 1517 1516 1516 1516 1516 1516 1515 1515 1515 1514 1514 1515 1514 1515 1514 1514 1515 1516 1517 1517 1517 1518 1519 1520 1521 1524 1524 1523 1523 1523 1524 1525 1527 1528 1530 1531 1532 1534 1535 1536 1537 1538 1539 1540 1541 1542 1543 1544 1545 1546 1547 1547 1548 1548 1549
1511 1512 1513 1514 1515 1516 1516 1516 1516 1516 1515 1515 1515 1515 1514 1513 1513 1513 1513 1513 1513 1513 1513 1513 1512 1513 1513 1514 1514 1515 1515 1516 1518 1521 1522 1522 1521 1521 1522 1523 1524 1526 1527 1529 1530 1532 1533 1534 1535 1536 1537 1538 1539 1540 1541 1542 1543 1544 1544 1545 1546 1546 1547
1510 1511 1512 1513 1514 1515 1516 1515 1516 1515 1515 1514 1513 1513 1513 1512 1512 1511 1511 1511 1511 1511 1512 1512 1511 1510 1510 1511 1511 1512 1513 1514 1516 1517 1518 1519 1519 1520 1521 1522 1522 1523 1525 1527 1528 1529 1531 1532 1533 1534 1535 1536 1537 1537 1538 1539 1540 1541 1542 1542 1543 1544 1544
1509 1510 1512 1513 1514 1514 1514 1515 1515 1514 1514 1513 1512 1512 1511 1511 1510 1510 1509 1509 1509 1510 1510 1510 1510 1509 1508 1508 1508 1509 1510 1512 1513 1514 1515 1516 1517 1517 1518 1519 1520 1521 1523 1524 1525 1527 1528 1529 1530 1531 1532 1533 1534 1535 1536 1537 1538 1538 1539 1540 1541 1541 1542
1509 1510 1511 1512 1513 1513 1513 1514 1513 1513 1513 1512 1511 1511 1510 1510 1509 1508 1508 1507 1507 1507 1508 1508 1508 1508 1508 1507 1507 1507 1507 1508 1510 1511 1512 1513 1513 1514 1516 1516 1518 1519 1520 1521 1522 1524 1525 1526 1527 1528 1529 1530 1532 1533 1534 1534 1535 1536 1537 1537 1538 1539 1539
1508 1509 1510 1511 1512 1512 1513 1513 1512 1512 1512 1511 1510 1510 1509 1509 1508 1507 1507 1506 1505 1505 1505 1506 1506 1506 1507 1506 1506 1506 1505 1506 1507 1508 1509 1510 1511 1512 1513 1513 1514 1516 1517 1518 1519 1520 1521 1522 1524 1525 1526 1527 1528 1530 1530 1531 1532 1533 1534 1535 1535 1536 1537
1506 1508 1509 1509 1510 1511 1511 1511 1511 1511 1511 1510 1509 1508 1508 1508 1507 1506 1505 1504 1504 1503 1503 1503 1503 1504 1504 1505 1505 1504 1504 1505 1505 1505 1506 1507 1508 1509 1509 1510 1511 1513 1514 1515 1516 1517 1518 1519 1520 1521 1523 1524 1525 1526 1527 1528 1529 1530 1531 1532 1533 1533 1534
1505 1506 1507 1508 1509 1509 1510 1510 1510 1510 1509 1509 1508 1507 1507 1506 1506 1505 1504 1503 1502 1501 1501 1501 1501 1501 1502 1502 1502 1502 1502 1503 1503 1503 1504 1504 1505 1506 1506 1507 1508 1510 1511 1512 1515 1516 1516 1516 1517 1518 1520 1520 1521 1523 1523 1524 1526 1527 1528 1529 1530 1531 1531
1503 1505 1506 1507 1508 1508 1509 1509 1509 1509 1508 1508 1507 1506 1506 1505 1505 1504 1503 1502 1501 1500 1500 1499 1499 1500 1499 1499 1500 1500 1500 1500 1500 1501 1501 1501 1502 1503 1503 1504 1504 1506 1507 1509 1511 1513 1513 1513 1514 1515 1516 1517 1518 1519 1520 1521 1523 1524 1525 1526 1527 1528 1528
1503 1504 1505 1506 1507 1507 1508 1508 1508 1508 1507 1507 1506 1506 1505 1504 1503 1503 1502 1501 1500 1499 1499 1498 1497 1497 1497 1497 1497 1497 1497 1498 1498 1498 1498 1498 1499 1499 1500 1500 1501 1502 1504 1505 1507 1508 1509 1509 1510 1511 1513 1513 1514 1516 1517 1518 1519 1520 1522 1523 1524 1525 1525
1502 1503 1504 1505 1506 1507 1507 1508 1508 1507 1507 1506 1506 1505 1504 1503 1502 1502 1501 1500 1499 1498 1498 1497 1496 1495 1495 1494 1494 1494 1495 1495 1495 1495 1495 1495 1495 1495 1496 1497 1497 1498 1500 1501 1502 1503 1504 1506 1507 1508 1509 1510 1511 1512 1513 1514 1516 1517 1518 1519 1521 1522 1522
1501 1502 1503 1504 1505 1506 1507 1507 1507 1506 1506 1505 1505 1504 1503 1502 1502 1501 1501 1500 1499 1498 1496 1496 1495 1494 1493 1492 1492 1492 1492 1492 1491 1491 1491 1491 1492 1492 1493 1493 1494 1495 1496 1497 1498 1499 1500 1502 1503 1504 1505 1506 1507 1508 1509 1510 1512 1513 1515 1516 1518 1519 1519
1501 1503 1503 1504 1505 1506 1506 1506 1505 1505 1505 1504 1504 1503 1502 1502 1501 1501 1500 1499 1498 1497 1496 1494 1493 1492 1491 1490 1490 1489 1489 1489 1488 1488 1488 1488 1488 1489 1490 1490 1491 1492 1493 1493 1494 1495 1496 1498 1499 1500 1502 1503 1504 1505 1505 1507 1508 1509 1511 1512 1514 1515 1515
1502 1503 1503 1504 1505 1505 1505 1505 1504 1504 1504 1504 1503 1503 1502 1501 1501 1500 1499 1498 1497 1496 1494 1493 1492 1491 1490 1489 1488 1487 1486 1486 1485 1485 1485 1485 1485 1486 1487 1487 1488 1488 1489 1490 1491 1492 1493 1494 1495 1496 1499 1500 1501 1501 1502 1504 1505 1506 1507 1509 1510 1511 1511
1501 1503 1503 1504 1504 1504 1504 1504 1504 1504 1504 1504 1503 1502 1501 1501 1500 1499 1498 1497 1496 1495 1493 1492 1491 1490 1489 1488 1487 1485 1484 1483 1483 1483 1482 1483 1483 1483 1484 1484 1485 1486 1487 1487 1488 1489 1490 1491 1492 1493 1495 1496 1497 1498 1499 1500 1501 1502 1504 1505 1506 1507 1507
1501 1502 1502 1503 1504 1504 1503 1503 1503 1504 1504 1503 1503 1502 1501 1500 1499 1498 1497 1496 1495 1494 1493 1492 1491 1490 1489 1488 1486 1485 1484 1483 1482 1482 1481 1481 1481 1481 1481 1482 1482 1483 1484 1485 1486 1486 1487 1488 1489 1490 1491 1492 1492 1493 1494 1495 1496 1498 1500 1501 1502 1502 1503
1500 1501 1502 1503 1503 1503 1503 1503 1503 1503 1503 1503 1502 1501 1500 1499 1498 1498 1497 1496 1495 1495 1494 1493 1491 1490 1489 1488 1486 1485 1484 1483 1483 1482 1481 1481 1481 1480 1480 1480 1481 1482 1482 1483 1484 1484 1485 1486 1486 1487 1487 1487 1488 1488 1488 1489 1491 1493 1495 1497 1498 1499 1500
1500 1501 1502 1503 1503 1502 1503 1503 1503 1503 1503 1502 1502 1501 1500 1499 1499 1498 1497 1496 1496 1495 1494 1493 1492 1491 1489 1488 1487 1486 1485 1484 1483 1482 1482 1481 1480 1480 1479 1479 1479 1480 1480 1481 1482 1482 1483 1484 1484 1484 1484 1484 1484 1484 1484 1485 1487 1489 1491 1493 1494 1496 1498
1499 1500 1501 1501 1502 1502 1502 1503 1503 1502 1502 1502 1501 1501 1500 1500 1499 1498 1498 1497 1496 1495 1494 1493 1492 1491 1490 1489 1488 1486 1485 1485 1484 1483 1482 1481 1480 1479 1479 1478 1478 1479 1479 1479 1480 1480 1481 1482 1482 1482 1482 1482 1482 1482 1482 1483 1485 1486 1488 1489 1491 1493 1495
1498 1499 1500 1500 1501 1502 1502 1502 1502 1502 1502 1502 1501 1501 1500 1500 1500 1499 1498 1497 1496 1495 1494 1493 1493 1492 1490 1489 1488 1487 1486 1485 1484 1484 1483 1482 1481 1480 1479 1478 1478 1478 1478 1478 1478 1479 1479 1480 1480 1480 1480 1480 1481 1481 1481 1482 1483 1484 1485 1486 1488 1490 1492
1498 1499 1499 1500 1501 1501 1501 1501 1501 1502 1502 1502 1502 1502 1501 1501 1500 1499 1499 1498 1497 1496 1494 1494 1493 1492 1491 1490 1489 1488 1487 1486 1486 1485 1484 1483 1482 1480 1479 1479 1478 1478 1478 1478 1478 1478 1478 1478 1479 1479 1479 1480 1480 1480 1480 1480 1481 1482 1483 1484 1486 1488 1490
1498 1498 1499 1499 1500 1500 1501 1501 1501 1502 1502 1502 1502 1502 1502 1501 1501 1500 1499 1498 1497 1496 1495 1495 1494 1493 1492 1491 1490 1489 1489 1488 1487 1486 1485 1484 1483 1482 1481 1480 1480 1480 1480 1479 1479 1479 1479 1478 1479 1479 1480 1480 1480 1480 1481 1481 1481 1481 1482 1483 1484 1486 1490
1497 1498 1498 1499 1499 1500 1501 1501 1502 1502 1502 1502 1502 1501 1502 1502 1501 1500 1500 1499 1498 1498 1497 1496 1495 1494 1493 1492 1492 1491 1491 1490 1489 1488 1487 1486 1485 1484 1483 1483 1482 1482 1482 1482 1481 1481 1481 1480 1481 1481 1481 1481 1481 1482 1482 1482 1481 1482 1483 1484 1485 1487 1490
1496 1497 1498 1499 1499 1500 1501 1501 1502 1502 1502 1502 1501 1501 1502 1502 1502 1502 1501 1500 1500 1499 1498 1497 1496 1495 1494 1494 1494 1493 1493 1492 1491 1490 1489 1488 1487 1486 1485 1485 1485 1485 1485 1485 1484 1484 1484 1483 1483 1483 1483 1483 1484 1484 1484 1484 1484 1485 1486 1487 1488 1489 1490
1496 1497 1498 1499 1500 1501 1501 1501 1502 1501 1501 1502 1501 1501 1502 1502 1503 1503 1502 1501 1501 1500 1499 1499 1498 1497 1496 1496 1495 1495 1495 1494 1493 1492 1491 1490 1489 1488 1488 1488 1488 1488 1488 1488 1488 1488 1488 1487 1487 1487 1487 1487 1488 1489 1488 1487 1488 1491 1492 1492 1493 1494 1494
1495 1497 1498 1499 1500 1500 1501 1501 1501 1501 1502 1502 1502 1502 1503 1503 1504 1504 1503 1503 1502 1502 1501 1500 1499 1499 1498 1498 1497 1497 1496 1496 1495 1494 1494 1493 1492 1491 1490 1491 1492 1492 1492 1492 1492 1493 1493 1492 1492 1493 1492 1492 1494 1495 1494 1494 1495 1498 1499 1498 1498 1499 1500
1495 1496 1497 1498 1499 1500 1501 1501 1501 1502 1502 1503 1503 1503 1504 1504 1504 1504 1504 1504 1503 1503 1503 1502 1501 1501 1500 1500 1499 1499 1498 1498 1497 1497 1496 1496 1495 1494 1493 1493 1494 1495 1496 1497 1497 1497 1498 1498 1497 1499 1498 1496 1497 1499 1500 1501 1502 1503 1504 1504 1504 1504 1504
1494 1495 1496 1497 1498 1500 1501 1501 1502 1503 1503 1504 1504 1504 1505 1505 1506 1505 1505 1505 1504 1504 1504 1504 1503 1502 1502 1501 1501 1501 1500 1500 1499 1499 1499 1498 1498 1498 1497 1496 1496 1497 1500 1501 1501 1501 1502 1503 1503 1503 1503 1502 1502 1502 1504 1506 1507 1508 1508 1508 1508 1508 1508